Regional Weather Roundup
Issued by NWS

Home | Current Version | Previous Version | Text Only | Print | Product List | Glossary Off
Versions: 1 2 3 4 5 6 7 8 9 10 11 12 13 14 15 16 17 18 19 20 21 22 23 24 25 26 27 28 29 30 31 32 33 34 35 36 37 38 39 40 41 42 43 44 45 46 47 48 49 50

000
ASUS43 KLSX 210407
RWRMO

WEATHER SUMMARY FOR MISSOURI
NATIONAL WEATHER SERVICE SPRINGFIELD MO
1100 PM CDT FRI OCT 20 2017

NOTE: "FAIR" INDICATES FEW OR NO CLOUDS BELOW 12,000 FEET WITH NO
       SIGNIFICANT WEATHER AND/OR OBSTRUCTIONS TO VISIBILITY.
       CURRENT SKY AND/OR WEATHER CONDITIONS ARE NOT AVAILABLE FOR
       CHILLICOTHE AND FARMINGTON.

MOZ001>031-035>038-043-044-053-054-210500-
...NORTHERN AND WESTERN MISSOURI...

CITY           SKY/WX    TMP DP  RH WIND       PRES   REMARKS
KANSAS CTY INT PTCLDY    67  56  67 S20G38    29.86R
KANSAS C DTWN  CLEAR     69  58  67 S18G25    29.87R
LEE`S SUMMIT   PTCLDY    65  58  78 S21G28    29.90R
ST JOSEPH      LGT RAIN  67  57  70 S13       29.83S
CHILLICOTHE      N/A     64  55  72 S7        29.91S
KIRKSVILLE     PTCLDY    63  54  72 S15       29.95R

$$
MOZ066>068-077>081-088>096-101>105-210500-
...SOUTHWEST MISSOURI...

CITY           SKY/WX    TMP DP  RH WIND       PRES   REMARKS
SPRINGFIELD    PTCLDY    64  60  87 SE21G30   29.97S
JOPLIN         LGT RAIN  64  59  83 S14       29.94R
BRANSON        CLOUDY    63  57  82 SE9       30.02S

$$
MOZ032>034-039>042-045>050-055>058-069>072-210500-
...CENTRAL MISSOURI...

CITY           SKY/WX    TMP DP  RH WIND       PRES   REMARKS
COLUMBIA       CLEAR     63  54  72 S14       29.98S
JEFFERSON CITY CLEAR     64  53  67 SE7       29.99R
ROLLA          PTCLDY    64  53  67 S13G21    30.02S
SEDALIA        CLEAR     65  60  84 S14       29.95S
WHITEMAN AFB   CLEAR     64  57  80 S14       29.89R
WARRENSBURG    PTCLDY    63  55  77 SE13      29.92R
OSAGE BEACH    CLEAR     64  57  78 S9G16     29.99S

$$
MOZ051-052-059>065-210500-
...EAST CENTRAL MISSOURI...

CITY           SKY/WX    TMP DP  RH WIND       PRES   REMARKS
ST LOUIS INTL  MOCLDY    67  52  58 SE9       30.05S
SPIRIT OF STL  CLOUDY    67  53  61 E7        30.02F
ST CHARLES     CLOUDY    65  51  60 SE8       30.04F

$$
MOZ072>076-082>087-097>100-106>115-210500-
...SOUTH CENTRAL AND SOUTHEAST MISSOURI...

CITY           SKY/WX    TMP DP  RH WIND       PRES   REMARKS
CAPE GIRARDEAU CLOUDY    60  49  66 S3        30.11S
FARMINGTON     PTCLDY    65  50  58 S10G21    30.08S
POPLAR BLUFF   CLOUDY    57  52  83 CALM      30.10F
WEST PLAINS    MOCLDY    64  56  75 SE9       30.07S

$$


USA.gov is the U.S. government's official web portal to all federal, state and local government web resources and services.